| time (UTC) | temp C | wind direction | speed KPH | gust KPH | rain 1hr cm | rain 24hr cm | rain mn cm | humidity % | barometer mb |
| 20260504021620 | 22 | 195 | 3.2 | 4.8 | 0.00 | 0.00 | 0.00 | 47 | 1017.4 |
| 20260504021116 | 22 | 185 | 3.2 | 3.2 | 0.00 | 0.00 | 0.00 | 47 | 1017.3 |
| 20260504020613 | 22 | 162 | 4.8 | 4.8 | 0.00 | 0.00 | 0.00 | 46 | 1017.2 |
| 20260504020109 | 22 | 194 | 6.4 | 9.7 | 0.00 | 0.00 | 0.00 | 45 | 1017.1 |
| 20260504015606 | 23 | 148 | 3.2 | 4.8 | 0.00 | 0.00 | 0.00 | 45 | 1017.2 |
| 20260504015102 | 23 | 189 | 3.2 | 4.8 | 0.00 | 0.00 | 0.00 | 45 | 1017.0 |
| 20260504014558 | 23 | 160 | 3.2 | 4.8 | 0.00 | 0.00 | 0.00 | 45 | 1017.3 |
| 20260504014055 | 23 | 194 | 8.0 | 11.3 | 0.00 | 0.00 | 0.00 | 45 | 1017.0 |
| 20260504013553 | 23 | 197 | 4.8 | 11.3 | 0.00 | 0.00 | 0.00 | 44 | 1017.2 |
| 20260504013050 | 23 | 176 | 6.4 | 9.7 | 0.00 | 0.00 | 0.00 | 44 | 1017.1 |
| 20260504012547 | 23 | 181 | 4.8 | 8.0 | 0.00 | 0.00 | 0.00 | 44 | 1017.0 |
| 20260504012045 | 23 | 177 | 8.0 | 9.7 | 0.00 | 0.00 | 0.00 | 43 | 1017.1 |
| 20260504011541 | 23 | 185 | 9.7 | 12.9 | 0.00 | 0.00 | 0.00 | 43 | 1017.1 |
| 20260504011037 | 23 | 205 | 4.8 | 9.7 | 0.00 | 0.00 | 0.00 | 42 | 1017.0 |
| 20260504010533 | 24 | 180 | 4.8 | 4.8 | 0.00 | 0.00 | 0.00 | 42 | 1017.0 |
| 20260504010030 | 24 | 201 | 9.7 | 11.3 | 0.00 | 0.00 | 0.00 | 41 | 1016.9 |
| 20260504005526 | 24 | 181 | 9.7 | 12.9 | 0.00 | 0.00 | 0.00 | 40 | 1016.9 |
| 20260504005024 | 24 | 176 | 6.4 | 8.0 | 0.00 | 0.00 | 0.00 | 40 | 1017.0 |
| 20260504004522 | 24 | 197 | 6.4 | 9.7 | 0.00 | 0.00 | 0.00 | 40 | 1017.0 |
| 20260504004019 | 25 | 179 | 3.2 | 4.8 | 0.00 | 0.00 | 0.00 | 40 | 1016.8 |
| 20260504003515 | 25 | 143 | 8.0 | 11.3 | 0.00 | 0.00 | 0.00 | 40 | 1016.9 |
| 20260504003012 | 25 | 174 | 4.8 | 8.0 | 0.00 | 0.00 | 0.00 | 39 | 1016.8 |
| 20260504002509 | 25 | 188 | 3.2 | 3.2 | 0.00 | 0.00 | 0.00 | 39 | 1017.0 |
| 20260504002006 | 25 | 167 | 3.2 | 3.2 | 0.00 | 0.00 | 0.00 | 39 | 1016.8 |
| 20260504001503 | 25 | 144 | 6.4 | 8.0 | 0.00 | 0.00 | 0.00 | 39 | 1017.0 |
| 20260504000959 | 25 | 174 | 4.8 | 8.0 | 0.00 | 0.00 | 0.00 | 39 | 1017.2 |
| 20260504000457 | 25 | 163 | 9.7 | 12.9 | 0.00 | 0.00 | 0.00 | 39 | 1017.0 |
| 20260503235954 | 26 | 211 | 6.4 | 9.7 | 0.00 | 0.00 | 0.00 | 38 | 1017.0 |
| 20260503235452 | 26 | 192 | 6.4 | 8.0 | 0.00 | 0.00 | 0.00 | 37 | 1016.9 |
| 20260503234949 | 26 | 156 | 11.3 | 14.5 | 0.00 | 0.00 | 0.00 | 37 | 1017.0 |
| 20260503234446 | 26 | 184 | 9.7 | 11.3 | 0.00 | 0.00 | 0.00 | 37 | 1017.1 |
| 20260503233944 | 26 | 190 | 3.2 | 4.8 | 0.00 | 0.00 | 0.00 | 37 | 1017.0 |
| 20260503233440 | 26 | 201 | 3.2 | 4.8 | 0.00 | 0.00 | 0.00 | 37 | 1017.1 |
| 20260503232937 | 26 | 189 | 12.9 | 16.1 | 0.00 | 0.00 | 0.00 | 37 | 1017.5 |
| 20260503232434 | 26 | 190 | 0.0 | 1.6 | 0.00 | 0.00 | 0.00 | 38 | 1017.2 |
| 20260503231932 | 26 | 210 | 6.4 | 9.7 | 0.00 | 0.00 | 0.00 | 37 | 1017.3 |
| 20260503231429 | 26 | 193 | 1.6 | 3.2 | 0.00 | 0.00 | 0.00 | 37 | 1017.4 |
| 20260503230925 | 26 | 196 | 12.9 | 20.9 | 0.00 | 0.00 | 0.00 | 35 | 1017.2 |
| 20260503230422 | 27 | 213 | 12.9 | 14.5 | 0.00 | 0.00 | 0.00 | 35 | 1017.2 |
| 20260503225920 | 27 | 195 | 8.0 | 11.3 | 0.00 | 0.00 | 0.00 | 36 | 1017.2 |
| 20260503225416 | 27 | 152 | 11.3 | 20.9 | 0.00 | 0.00 | 0.00 | 36 | 1017.2 |
| 20260503224912 | 27 | 155 | 6.4 | 11.3 | 0.00 | 0.00 | 0.00 | 35 | 1017.5 |
| 20260503224409 | 27 | 180 | 4.8 | 8.0 | 0.00 | 0.00 | 0.00 | 35 | 1017.1 |
| 20260503223907 | 27 | 201 | 3.2 | 8.0 | 0.00 | 0.00 | 0.00 | 34 | 1017.3 |
| 20260503223405 | 27 | 190 | 6.4 | 9.7 | 0.00 | 0.00 | 0.00 | 33 | 1017.5 |
| 20260503222859 | 27 | 204 | 4.8 | 8.0 | 0.00 | 0.00 | 0.00 | 33 | 1017.6 |
| 20260503222358 | 27 | 176 | 9.7 | 16.1 | 0.00 | 0.00 | 0.00 | 33 | 1017.5 |
| 20260503221856 | 27 | 225 | 9.7 | 16.1 | 0.00 | 0.00 | 0.00 | 34 | 1017.6 |
| 20260503221355 | 27 | 207 | 3.2 | 4.8 | 0.00 | 0.00 | 0.00 | 34 | 1017.7 |
| 20260503220850 | 27 | 189 | 3.2 | 3.2 | 0.00 | 0.00 | 0.00 | 34 | 1017.7 |
| 20260503220347 | 28 | 200 | 3.2 | 4.8 | 0.00 | 0.00 | 0.00 | 34 | 1017.7 |
| 20260503215844 | 28 | 160 | 6.4 | 9.7 | 0.00 | 0.00 | 0.00 | 33 | 1017.8 |
| 20260503215341 | 28 | 183 | 12.9 | 14.5 | 0.00 | 0.00 | 0.00 | 33 | 1017.6 |
| 20260503214839 | 27 | 153 | 0.0 | 1.6 | 0.00 | 0.00 | 0.00 | 35 | 1017.8 |
| 20260503214336 | 28 | 187 | 9.7 | 14.5 | 0.00 | 0.00 | 0.00 | 34 | 1018.1 |
| 20260503213833 | 28 | 221 | 6.4 | 11.3 | 0.00 | 0.00 | 0.00 | 34 | 1018.1 |
| 20260503213331 | 27 | 123 | 4.8 | 4.8 | 0.00 | 0.00 | 0.00 | 33 | 1018.1 |
| 20260503212827 | 27 | 201 | 9.7 | 16.1 | 0.00 | 0.00 | 0.00 | 34 | 1018.1 |
| 20260503212326 | 28 | 197 | 4.8 | 4.8 | 0.00 | 0.00 | 0.00 | 33 | 1018.1 |
| 20260503211823 | 28 | 209 | 1.6 | 1.6 | 0.00 | 0.00 | 0.00 | 34 | 1018.5 |
| 20260503211319 | 28 | 222 | 3.2 | 3.2 | 0.00 | 0.00 | 0.00 | 35 | 1018.3 |
| 20260503210819 | 28 | 180 | 11.3 | 12.9 | 0.00 | 0.00 | 0.00 | 32 | 1018.3 |
| 20260503210317 | 28 | 146 | 9.7 | 11.3 | 0.00 | 0.00 | 0.00 | 32 | 1018.5 |
| 20260503205812 | 28 | 171 | 4.8 | 4.8 | 0.00 | 0.00 | 0.00 | 33 | 1018.6 |
| 20260503205309 | 28 | 145 | 1.6 | 3.2 | 0.00 | 0.00 | 0.00 | 33 | 1018.8 |
| 20260503204805 | 28 | 178 | 3.2 | 4.8 | 0.00 | 0.00 | 0.00 | 33 | 1018.9 |
| 20260503204303 | 28 | 174 | 4.8 | 4.8 | 0.00 | 0.00 | 0.00 | 31 | 1018.8 |
| 20260503203800 | 28 | 174 | 4.8 | 4.8 | 0.00 | 0.00 | 0.00 | 33 | 1018.9 |
| 20260503203257 | 28 | 166 | 3.2 | 8.0 | 0.00 | 0.00 | 0.00 | 32 | 1019.2 |
| 20260503202754 | 28 | 170 | 4.8 | 9.7 | 0.00 | 0.00 | 0.00 | 31 | 1019.2 |
| 20260503202252 | 28 | 222 | 3.2 | 3.2 | 0.00 | 0.00 | 0.00 | 33 | 1019.4 |
| 20260503201750 | 28 | 187 | 3.2 | 3.2 | 0.00 | 0.00 | 0.00 | 34 | 1019.3 |
| 20260503201247 | 28 | 144 | 4.8 | 8.0 | 0.00 | 0.00 | 0.00 | 33 | 1019.5 |
| 20260503200744 | 28 | 177 | 1.6 | 4.8 | 0.00 | 0.00 | 0.00 | 35 | 1019.6 |
| 20260503200240 | 28 | 218 | 1.6 | 3.2 | 0.00 | 0.00 | 0.00 | 34 | 1019.7 |
| 20260503195737 | 28 | 254 | 4.8 | 9.7 | 0.00 | 0.00 | 0.00 | 34 | 1019.8 |
| 20260503195233 | 28 | 115 | 4.8 | 8.0 | 0.00 | 0.00 | 0.00 | 34 | 1019.8 |
| 20260503194732 | 28 | 232 | 1.6 | 3.2 | 0.00 | 0.00 | 0.00 | 34 | 1020.1 |
| 20260503194227 | 28 | 204 | 1.6 | 3.2 | 0.00 | 0.00 | 0.00 | 33 | 1019.9 |
| 20260503193723 | 28 | 213 | 0.0 | 1.6 | 0.00 | 0.00 | 0.00 | 36 | 1020.1 |
| 20260503193219 | 28 | 153 | 4.8 | 9.7 | 0.00 | 0.00 | 0.00 | 34 | 1020.3 |
| 20260503192715 | 27 | 134 | 3.2 | 4.8 | 0.00 | 0.00 | 0.00 | 34 | 1020.2 |
| 20260503192210 | 28 | 186 | 3.2 | 3.2 | 0.00 | 0.00 | 0.00 | 35 | 1020.5 |
| 20260503191708 | 28 | 230 | 1.6 | 3.2 | 0.00 | 0.00 | 0.00 | 36 | 1020.5 |
| 20260503191205 | 28 | 204 | 3.2 | 4.8 | 0.00 | 0.00 | 0.00 | 37 | 1020.5 |
| 20260503190701 | 28 | 230 | 1.6 | 3.2 | 0.00 | 0.00 | 0.00 | 37 | 1020.5 |
| 20260503190158 | 27 | 206 | 4.8 | 9.7 | 0.00 | 0.00 | 0.00 | 38 | 1020.5 |
| 20260503185655 | 28 | 201 | 1.6 | 1.6 | 0.00 | 0.00 | 0.00 | 37 | 1020.6 |
| 20260503185150 | 28 | 243 | 3.2 | 3.2 | 0.00 | 0.00 | 0.00 | 37 | 1020.6 |
| 20260503184645 | 27 | 177 | 6.4 | 8.0 | 0.00 | 0.00 | 0.00 | 39 | 1020.7 |
| 20260503184142 | 28 | 181 | 4.8 | 9.7 | 0.00 | 0.00 | 0.00 | 36 | 1020.7 |
| 20260503183638 | 28 | 199 | 4.8 | 4.8 | 0.00 | 0.00 | 0.00 | 36 | 1020.8 |
| 20260503183136 | 28 | 193 | 6.4 | 9.7 | 0.00 | 0.00 | 0.00 | 36 | 1020.8 |
| 20260503182634 | 27 | 181 | 1.6 | 3.2 | 0.00 | 0.00 | 0.00 | 37 | 1021.2 |
| 20260503182132 | 28 | 202 | 3.2 | 3.2 | 0.00 | 0.00 | 0.00 | 38 | 1021.2 |
| 20260503181629 | 28 | 251 | 6.4 | 8.0 | 0.00 | 0.00 | 0.00 | 37 | 1021.4 |
| 20260503181125 | 27 | 268 | 1.6 | 3.2 | 0.00 | 0.00 | 0.00 | 38 | 1021.3 |
| 20260503180622 | 27 | 198 | 6.4 | 11.3 | 0.00 | 0.00 | 0.00 | 39 | 1021.5 |
| 20260503180120 | 27 | 219 | 6.4 | 9.7 | 0.00 | 0.00 | 0.00 | 39 | 1021.6 |
| 20260503175617 | 27 | 161 | 6.4 | 8.0 | 0.00 | 0.00 | 0.00 | 38 | 1021.7 |
| 20260503175114 | 26 | 199 | 6.4 | 9.7 | 0.00 | 0.00 | 0.00 | 40 | 1021.7 |
| 20260503174611 | 27 | 272 | 4.8 | 4.8 | 0.00 | 0.00 | 0.00 | 39 | 1022.0 |
| 20260503174108 | 27 | 225 | 4.8 | 8.0 | 0.00 | 0.00 | 0.00 | 43 | 1022.0 |
| 20260503173603 | 27 | 190 | 1.6 | 3.2 | 0.00 | 0.00 | 0.00 | 40 | 1022.1 |
| 20260503173059 | 27 | 122 | 4.8 | 8.0 | 0.00 | 0.00 | 0.00 | 38 | 1022.2 |
| 20260503172556 | 27 | 200 | 1.6 | 1.6 | 0.00 | 0.00 | 0.00 | 42 | 1022.0 |
| 20260503172054 | 27 | 171 | 1.6 | 3.2 | 0.00 | 0.00 | 0.00 | 43 | 1022.2 |
| 20260503171550 | 26 | 162 | 4.8 | 11.3 | 0.00 | 0.00 | 0.00 | 43 | 1022.5 |
| 20260503171048 | 26 | 189 | 4.8 | 4.8 | 0.00 | 0.00 | 0.00 | 44 | 1022.4 |
| 20260503170544 | 26 | 219 | 3.2 | 3.2 | 0.00 | 0.00 | 0.00 | 45 | 1022.3 |
| 20260503150937 | 23 | 259 | 1.6 | 3.2 | 0.00 | 0.00 | 0.00 | 50 | 1022.6 |
| 20260503150433 | 22 | 169 | 3.2 | 3.2 | 0.00 | 0.00 | 0.00 | 50 | 1022.7 |
| 20260503131326 | 16 | 198 | 0.0 | 1.6 | 0.00 | 0.00 | 0.00 | 70 | 1022.5 |
| 20260503130824 | 16 | 187 | 0.0 | 1.6 | 0.00 | 0.00 | 0.00 | 70 | 1022.7 |
| 20260503130321 | 16 | 196 | 1.6 | 1.6 | 0.00 | 0.00 | 0.00 | 72 | 1022.5 |
| 20260503110714 | 11 | 206 | 0.0 | 0.0 | 0.00 | 0.00 | 0.00 | 83 | 1021.8 |
| 20260503110212 | 11 | 206 | 0.0 | 0.0 | 0.00 | 0.00 | 0.00 | 83 | 1021.9 |
| 20260503100132 | 12 | 206 | 0.0 | 0.0 | 0.00 | 0.00 | 0.00 | 78 | 1021.8 |
| 20260503081521 | 15 | 197 | 0.0 | 0.0 | 0.00 | 0.00 | 0.00 | 64 | 1021.6 |
| 20260503081019 | 15 | 198 | 0.0 | 1.6 | 0.00 | 0.00 | 0.00 | 64 | 1021.6 |
| 20260503080515 | 16 | 195 | 0.0 | 0.0 | 0.00 | 0.00 | 0.00 | 64 | 1021.7 |
| 20260503072449 | 15 | 186 | 0.0 | 0.0 | 0.00 | 0.00 | 0.00 | 64 | 1021.5 |
| 20260503071945 | 16 | 197 | 0.0 | 0.0 | 0.00 | 0.00 | 0.00 | 64 | 1021.7 |
| 20260503071442 | 16 | 196 | 0.0 | 0.0 | 0.00 | 0.00 | 0.00 | 63 | 1021.8 |
| 20260503070938 | 16 | 197 | 1.6 | 1.6 | 0.00 | 0.00 | 0.00 | 62 | 1021.6 |
| 20260503070436 | 16 | 199 | 1.6 | 1.6 | 0.00 | 0.00 | 0.00 | 62 | 1021.7 |
| 20260503054849 | 17 | 183 | 1.6 | 3.2 | 0.00 | 0.00 | 0.00 | 57 | 1021.6 |
| 20260503054345 | 17 | 191 | 1.6 | 3.2 | 0.00 | 0.00 | 0.00 | 57 | 1021.6 |
| 20260503053843 | 17 | 191 | 0.0 | 1.6 | 0.00 | 0.00 | 0.00 | 57 | 1021.7 |
| 20260503053341 | 17 | 196 | 1.6 | 1.6 | 0.00 | 0.00 | 0.00 | 57 | 1021.6 |
| 20260503052837 | 17 | 192 | 1.6 | 1.6 | 0.00 | 0.00 | 0.00 | 57 | 1021.8 |
| 20260503052334 | 17 | 183 | 1.6 | 1.6 | 0.00 | 0.00 | 0.00 | 57 | 1021.4 |
| 20260503051830 | 17 | 195 | 0.0 | 1.6 | 0.00 | 0.00 | 0.00 | 57 | 1021.4 |
| 20260503051327 | 17 | 191 | 1.6 | 1.6 | 0.00 | 0.00 | 0.00 | 56 | 1021.4 |
| 20260503050824 | 17 | 185 | 3.2 | 3.2 | 0.00 | 0.00 | 0.00 | 56 | 1021.4 |
| 20260503050320 | 17 | 191 | 1.6 | 3.2 | 0.00 | 0.00 | 0.00 | 56 | 1021.5 |
| 20260503045818 | 17 | 186 | 1.6 | 1.6 | 0.00 | 0.00 | 0.00 | 56 | 1021.4 |
| 20260503045315 | 17 | 192 | 1.6 | 1.6 | 0.00 | 0.00 | 0.00 | 55 | 1021.6 |
| 20260503044811 | 18 | 193 | 1.6 | 1.6 | 0.00 | 0.00 | 0.00 | 55 | 1021.6 |
| 20260503044308 | 18 | 184 | 1.6 | 1.6 | 0.00 | 0.00 | 0.00 | 54 | 1021.5 |
| 20260503043806 | 18 | 185 | 1.6 | 3.2 | 0.00 | 0.00 | 0.00 | 54 | 1021.5 |
| 20260503043303 | 18 | 193 | 1.6 | 1.6 | 0.00 | 0.00 | 0.00 | 53 | 1021.6 |
| 20260503042758 | 18 | 192 | 1.6 | 1.6 | 0.00 | 0.00 | 0.00 | 52 | 1021.7 |
| 20260503042255 | 18 | 187 | 3.2 | 3.2 | 0.00 | 0.00 | 0.00 | 52 | 1021.5 |
| 20260503041751 | 18 | 191 | 1.6 | 1.6 | 0.00 | 0.00 | 0.00 | 52 | 1021.5 |
| 20260503041249 | 18 | 191 | 1.6 | 1.6 | 0.00 | 0.00 | 0.00 | 51 | 1021.5 |
| 20260503040747 | 18 | 185 | 1.6 | 1.6 | 0.00 | 0.00 | 0.00 | 51 | 1021.4 |
| 20260503040244 | 18 | 187 | 1.6 | 1.6 | 0.00 | 0.00 | 0.00 | 51 | 1021.4 |
| 20260503035740 | 18 | 202 | 1.6 | 1.6 | 0.00 | 0.00 | 0.00 | 52 | 1021.5 |
| 20260503035238 | 18 | 185 | 0.0 | 3.2 | 0.00 | 0.00 | 0.00 | 52 | 1021.3 |
| 20260503034735 | 18 | 197 | 1.6 | 1.6 | 0.00 | 0.00 | 0.00 | 52 | 1021.5 |
| 20260503034232 | 18 | 197 | 1.6 | 1.6 | 0.00 | 0.00 | 0.00 | 52 | 1021.4 |
| 20260503033730 | 18 | 191 | 0.0 | 0.0 | 0.00 | 0.00 | 0.00 | 53 | 1021.5 |
| 20260503033227 | 18 | 197 | 0.0 | 0.0 | 0.00 | 0.00 | 0.00 | 53 | 1021.3 |
| 20260503032725 | 18 | 197 | 0.0 | 0.0 | 0.00 | 0.00 | 0.00 | 53 | 1021.2 |
| 20260503032224 | 19 | 197 | 0.0 | 0.0 | 0.00 | 0.00 | 0.00 | 51 | 1021.0 |
| 20260503031720 | 19 | 198 | 1.6 | 1.6 | 0.00 | 0.00 | 0.00 | 50 | 1021.3 |
| 20260503031218 | 19 | 198 | 1.6 | 3.2 | 0.00 | 0.00 | 0.00 | 50 | 1021.3 |
| 20260503030714 | 19 | 200 | 1.6 | 1.6 | 0.00 | 0.00 | 0.00 | 50 | 1021.2 |
| 20260503030211 | 19 | 202 | 1.6 | 1.6 | 0.00 | 0.00 | 0.00 | 50 | 1021.0 |
| 20260503025708 | 18 | 208 | 1.6 | 1.6 | 0.00 | 0.00 | 0.00 | 51 | 1021.2 |
| 20260503025205 | 19 | 210 | 0.0 | 0.0 | 0.00 | 0.00 | 0.00 | 51 | 1021.0 |
| 20260503024701 | 19 | 211 | 0.0 | 0.0 | 0.00 | 0.00 | 0.00 | 50 | 1021.3 |
| 20260503024159 | 19 | 212 | 0.0 | 1.6 | 0.00 | 0.00 | 0.00 | 50 | 1021.0 |
| 20260503023656 | 19 | 216 | 0.0 | 1.6 | 0.00 | 0.00 | 0.00 | 51 | 1021.1 |
| 20260503023152 | 19 | 216 | 0.0 | 0.0 | 0.00 | 0.00 | 0.00 | 51 | 1021.0 |
| 20260503022649 | 20 | 216 | 0.0 | 0.0 | 0.00 | 0.00 | 0.00 | 49 | 1020.9 |
| 20260503022148 | 20 | 220 | 0.0 | 0.0 | 0.00 | 0.00 | 0.00 | 48 | 1021.0 |